Radiation Dose at Monitoring Post of Fukushima Daini Nuclear Power Station
Date,Time,MP-1(microSv/h),MP-2(microSv/h),MP-3(microSv/h),MP-4(microSv/h),MP-5(microSv/h),MP-6(microSv/h),MP-7(microSv/h),Wind Direction,Wind Velocity(m/s),Rain
2022/07/06,00:00,0.159,0.146,0.237,0.228,0.222,0.125,0.079,-,CALM,No
2022/07/06,00:10,0.157,0.145,0.238,0.225,0.221,0.123,0.080,-,CALM,No
2022/07/06,00:20,0.157,0.146,0.236,0.228,0.218,0.122,0.080,east,1.1,No
2022/07/06,00:30,0.158,0.145,0.237,0.227,0.222,0.124,0.079,east,1.4,No
2022/07/06,00:40,0.158,0.145,0.238,0.226,0.221,0.123,0.080,east,1.2,No
2022/07/06,00:50,0.157,0.147,0.235,0.229,0.218,0.122,0.079,east,1.2,Yes
2022/07/06,01:00,0.159,0.145,0.238,0.227,0.221,0.123,0.079,east-northeast,1.0,No
2022/07/06,01:10,0.157,0.146,0.238,0.226,0.220,0.123,0.080,east-northeast,1.4,Yes
2022/07/06,01:20,0.156,0.146,0.235,0.229,0.218,0.123,0.079,northeast,1.9,Yes
2022/07/06,01:30,0.158,0.145,0.237,0.227,0.221,0.123,0.079,northeast,1.6,Yes
2022/07/06,01:40,0.158,0.145,0.237,0.225,0.220,0.123,0.079,northeast,1.9,Yes
2022/07/06,01:50,0.156,0.146,0.235,0.227,0.218,0.122,0.079,north-northeast,2.7,Yes
2022/07/06,02:00,0.158,0.144,0.238,0.226,0.220,0.124,0.079,northeast,2.6,Yes
2022/07/06,02:10,0.158,0.146,0.236,0.226,0.221,0.124,0.080,north,1.9,Yes
2022/07/06,02:20,0.157,0.146,0.236,0.229,0.218,0.123,0.079,north,2.4,Yes
2022/07/06,02:30,0.158,0.147,0.238,0.226,0.219,0.124,0.080,north,2.1,Yes
2022/07/06,02:40,0.158,0.147,0.236,0.225,0.220,0.124,0.080,north-northeast,2.7,Yes
2022/07/06,02:50,0.157,0.145,0.237,0.227,0.217,0.123,0.079,north-northeast,1.5,Yes
2022/07/06,03:00,0.158,0.146,0.236,0.225,0.220,0.124,0.080,north-northeast,1.1,Yes
2022/07/06,03:10,0.156,0.146,0.234,0.226,0.218,0.124,0.079,north,1.5,Yes
2022/07/06,03:20,0.157,0.145,0.236,0.227,0.216,0.124,0.079,north,2.2,Yes
2022/07/06,03:30,0.158,0.146,0.235,0.224,0.220,0.124,0.080,north-northwest,2.5,Yes
2022/07/06,03:40,0.156,0.145,0.233,0.226,0.219,0.124,0.080,north,3.0,Yes
2022/07/06,03:50,0.158,0.145,0.236,0.226,0.217,0.123,0.079,north,3.6,Yes
2022/07/06,04:00,0.157,0.147,0.234,0.224,0.219,0.124,0.080,north,4.3,Yes
2022/07/06,04:10,0.156,0.144,0.234,0.226,0.218,0.124,0.079,north,3.0,Yes
2022/07/06,04:20,0.157,0.145,0.234,0.224,0.217,0.122,0.079,north-northwest,4.3,Yes
2022/07/06,04:30,0.156,0.144,0.233,0.222,0.220,0.123,0.080,north-northwest,4.6,Yes
2022/07/06,04:40,0.155,0.144,0.235,0.226,0.217,0.123,0.079,north-northwest,4.3,Yes
2022/07/06,04:50,0.156,0.145,0.233,0.224,0.216,0.122,0.078,north-northwest,4.9,Yes
2022/07/06,05:00,0.156,0.144,0.232,0.223,0.219,0.123,0.079,north-northwest,4.9,Yes
2022/07/06,05:10,0.154,0.145,0.233,0.224,0.218,0.122,0.078,north-northwest,4.4,Yes
2022/07/06,05:20,0.156,0.144,0.232,0.222,0.217,0.122,0.078,north-northwest,2.5,Yes
2022/07/06,05:30,0.156,0.144,0.232,0.223,0.218,0.123,0.079,northwest,5.2,Yes
2022/07/06,05:40,0.154,0.144,0.234,0.224,0.216,0.122,0.078,north-northwest,4.7,Yes
2022/07/06,05:50,0.155,0.145,0.232,0.223,0.216,0.122,0.078,north-northwest,3.0,Yes
2022/07/06,06:00,0.156,0.143,0.232,0.223,0.219,0.122,0.078,north-northwest,3.6,Yes
2022/07/06,06:10,0.155,0.144,0.234,0.224,0.217,0.123,0.078,north-northwest,4.8,Yes
2022/07/06,06:20,0.156,0.145,0.232,0.222,0.216,0.121,0.078,north,4.0,Yes
2022/07/06,06:30,0.157,0.143,0.233,0.223,0.219,0.122,0.078,north,3.8,Yes
2022/07/06,06:40,0.156,0.145,0.234,0.224,0.218,0.123,0.078,north-northwest,4.3,Yes
2022/07/06,06:50,0.157,0.145,0.231,0.221,0.214,0.122,0.077,north-northwest,5.1,Yes
2022/07/06,07:00,0.155,0.144,0.233,0.222,0.219,0.120,0.078,north-northwest,5.0,Yes
2022/07/06,07:10,0.155,0.144,0.233,0.224,0.217,0.123,0.078,north-northwest,5.4,Yes
2022/07/06,07:20,0.156,0.145,0.232,0.221,0.216,0.122,0.078,north-northwest,6.9,Yes
2022/07/06,07:30,0.155,0.143,0.233,0.223,0.218,0.121,0.079,north-northwest,5.8,Yes
2022/07/06,07:40,0.155,0.144,0.234,0.225,0.217,0.122,0.078,north-northwest,6.2,Yes
2022/07/06,07:50,0.157,0.143,0.231,0.222,0.214,0.122,0.078,northwest,5.6,Yes
2022/07/06,08:00,0.156,0.144,0.233,0.222,0.216,0.121,0.079,north-northwest,5.1,Yes
2022/07/06,08:10,0.156,0.143,0.233,0.223,0.218,0.122,0.078,north-northwest,4.7,Yes
2022/07/06,08:20,0.156,0.144,0.231,0.222,0.215,0.122,0.078,north-northwest,3.9,Yes
2022/07/06,08:30,0.155,0.143,0.232,0.221,0.216,0.121,0.078,north-northwest,4.8,Yes
2022/07/06,08:40,0.155,0.144,0.232,0.224,0.218,0.122,0.078,north-northwest,4.6,Yes
2022/07/06,08:50,0.157,0.144,0.229,0.222,0.215,0.122,0.077,north,3.7,Yes
2022/07/06,09:00,0.155,0.144,0.233,0.221,0.215,0.122,0.079,north,3.7,Yes
2022/07/06,09:10,0.155,0.143,0.233,0.223,0.218,0.122,0.078,north,3.9,Yes
2022/07/06,09:20,0.155,0.143,0.229,0.222,0.217,0.122,0.077,north-northwest,4.2,Yes
2022/07/06,09:30,0.156,0.144,0.232,0.220,0.214,0.122,0.078,north-northwest,4.8,Yes
2022/07/06,09:40,0.155,0.144,0.232,0.223,0.216,0.121,0.078,north,4.0,Yes
2022/07/06,09:50,0.157,0.142,0.231,0.222,0.217,0.122,0.077,north,3.6,Yes
2022/07/06,10:00,0.155,0.143,0.230,0.221,0.215,0.122,0.077,north,4.2,Yes
2022/07/06,10:10,0.154,0.144,0.232,0.221,0.213,0.120,0.078,north,4.9,Yes
2022/07/06,10:20,0.155,0.144,0.231,0.223,0.217,0.121,0.079,north-northeast,5.7,Yes
2022/07/06,10:30,0.157,0.143,0.229,0.220,0.215,0.121,0.077,northeast,5.5,Yes
2022/07/06,10:40,0.155,0.143,0.232,0.219,0.213,0.122,0.077,north-northeast,5.3,Yes
2022/07/06,10:50,0.154,0.143,0.230,0.221,0.214,0.121,0.078,northeast,5.5,Yes
2022/07/06,11:00,0.156,0.142,0.230,0.221,0.216,0.121,0.077,northeast,5.6,Yes
2022/07/06,11:10,0.155,0.143,0.232,0.219,0.214,0.122,0.078,northeast,5.9,Yes
2022/07/06,11:20,0.154,0.143,0.229,0.222,0.213,0.121,0.078,northeast,5.8,Yes
2022/07/06,11:30,0.157,0.143,0.229,0.221,0.216,0.121,0.077,northeast,6.3,Yes
2022/07/06,11:40,0.154,0.142,0.231,0.219,0.216,0.121,0.076,northeast,5.8,Yes
2022/07/06,11:50,0.154,0.143,0.230,0.220,0.213,0.121,0.078,northeast,6.3,Yes
2022/07/06,12:00,0.156,0.142,0.227,0.221,0.215,0.120,0.078,northeast,5.7,Yes
2022/07/06,12:10,0.154,0.142,0.230,0.218,0.215,0.121,0.077,northeast,5.8,Yes
2022/07/06,12:20,0.154,0.142,0.229,0.219,0.213,0.121,0.077,northeast,5.5,Yes
2022/07/06,12:30,0.154,0.141,0.227,0.220,0.212,0.120,0.077,northeast,5.2,Yes
2022/07/06,12:40,0.153,0.142,0.227,0.216,0.214,0.119,0.076,northeast,6.1,Yes
2022/07/06,12:50,0.152,0.140,0.226,0.217,0.211,0.120,0.077,northeast,5.7,Yes
2022/07/06,13:00,0.154,0.140,0.226,0.218,0.211,0.119,0.077,northeast,5.2,Yes
2022/07/06,13:10,0.153,0.142,0.228,0.214,0.213,0.118,0.076,northeast,5.1,Yes
2022/07/06,13:20,0.153,0.139,0.224,0.218,0.210,0.119,0.077,northeast,4.3,Yes
2022/07/06,13:30,0.152,0.140,0.225,0.216,0.211,0.118,0.076,east-northeast,4.6,Yes
2022/07/06,13:40,0.152,0.140,0.226,0.214,0.213,0.118,0.076,east-northeast,5.0,Yes
2022/07/06,13:50,0.153,0.140,0.223,0.218,0.211,0.119,0.077,east-northeast,5.2,Yes
2022/07/06,14:00,0.151,0.140,0.227,0.215,0.212,0.118,0.076,east-northeast,4.8,Yes
2022/07/06,14:10,0.150,0.140,0.224,0.213,0.213,0.117,0.076,east-northeast,3.9,Yes
2022/07/06,14:20,0.152,0.138,0.222,0.215,0.211,0.118,0.076,northeast,2.4,Yes
2022/07/06,14:30,0.151,0.139,0.224,0.213,0.210,0.119,0.076,northeast,2.0,Yes
2022/07/06,14:40,0.149,0.138,0.222,0.214,0.213,0.117,0.076,east-northeast,3.4,Yes
2022/07/06,14:50,0.152,0.139,0.223,0.214,0.211,0.117,0.077,northeast,3.4,Yes
2022/07/06,15:00,0.150,0.140,0.223,0.212,0.210,0.117,0.076,east-northeast,3.0,Yes
2022/07/06,15:10,0.149,0.138,0.222,0.215,0.212,0.117,0.077,northeast,2.1,Yes
2022/07/06,15:20,0.151,0.139,0.224,0.215,0.211,0.117,0.076,northeast,2.4,Yes
2022/07/06,15:30,0.150,0.139,0.224,0.212,0.210,0.116,0.076,east-northeast,3.5,Yes
2022/07/06,15:40,0.151,0.137,0.222,0.214,0.213,0.116,0.077,northeast,1.9,Yes
2022/07/06,15:50,0.152,0.140,0.224,0.215,0.212,0.117,0.076,northeast,1.9,Yes
2022/07/06,16:00,0.150,0.138,0.224,0.213,0.211,0.117,0.076,north-northeast,2.6,Yes
2022/07/06,16:10,0.151,0.139,0.222,0.216,0.214,0.116,0.076,north,2.3,Yes
2022/07/06,16:20,0.151,0.139,0.225,0.216,0.212,0.117,0.076,north,2.5,Yes
2022/07/06,16:30,0.150,0.139,0.223,0.214,0.209,0.117,0.076,north-northeast,2.2,Yes
2022/07/06,16:40,0.151,0.139,0.223,0.216,0.213,0.117,0.076,north,2.3,Yes
2022/07/06,16:50,0.150,0.140,0.224,0.216,0.213,0.117,0.075,north,2.4,Yes
2022/07/06,17:00,0.150,0.139,0.223,0.213,0.210,0.117,0.076,north,2.1,Yes
2022/07/06,17:10,0.151,0.139,0.224,0.215,0.213,0.116,0.076,north,2.3,No
2022/07/06,17:20,0.151,0.139,0.225,0.216,0.213,0.116,0.076,north,2.8,No
2022/07/06,17:30,0.149,0.138,0.223,0.213,0.211,0.117,0.076,north,2.9,No
2022/07/06,17:40,0.151,0.140,0.223,0.216,0.212,0.116,0.077,north-northwest,2.9,No
2022/07/06,17:50,0.151,0.140,0.225,0.215,0.214,0.117,0.076,north,2.3,No
2022/07/06,18:00,0.150,0.139,0.222,0.214,0.214,0.118,0.076,north-northeast,3.3,No
2022/07/06,18:10,0.151,0.140,0.224,0.215,0.211,0.118,0.076,north,3.0,No
2022/07/06,18:20,0.152,0.139,0.224,0.216,0.215,0.116,0.076,north,2.8,Yes
2022/07/06,18:30,0.149,0.139,0.222,0.214,0.213,0.118,0.076,north-northwest,1.8,Yes
2022/07/06,18:40,0.152,0.139,0.225,0.216,0.212,0.118,0.076,north,4.1,Yes
2022/07/06,18:50,0.151,0.139,0.223,0.215,0.213,0.118,0.076,north,3.5,Yes
2022/07/06,19:00,0.150,0.139,0.224,0.214,0.212,0.118,0.076,north,3.8,Yes
2022/07/06,19:10,0.152,0.139,0.226,0.216,0.212,0.118,0.076,north,4.2,Yes
2022/07/06,19:20,0.150,0.139,0.224,0.215,0.214,0.118,0.076,north,3.6,Yes
2022/07/06,19:30,0.151,0.140,0.225,0.215,0.212,0.118,0.077,north-northwest,3.9,Yes
2022/07/06,19:40,0.151,0.138,0.225,0.215,0.212,0.117,0.076,north,4.5,Yes
2022/07/06,19:50,0.151,0.140,0.224,0.215,0.213,0.117,0.076,north-northwest,3.6,Yes
2022/07/06,20:00,0.152,0.139,0.225,0.215,0.210,0.119,0.077,north-northwest,3.8,Yes
2022/07/06,20:10,0.151,0.139,0.223,0.216,0.213,0.118,0.076,north-northwest,4.2,Yes
2022/07/06,20:20,0.150,0.139,0.225,0.215,0.214,0.118,0.077,north-northwest,5.8,Yes
2022/07/06,20:30,0.151,0.138,0.224,0.216,0.211,0.118,0.077,north-northwest,5.4,Yes
2022/07/06,20:40,0.151,0.140,0.222,0.215,0.213,0.118,0.076,north-northwest,5.7,Yes
2022/07/06,20:50,0.150,0.140,0.225,0.214,0.213,0.119,0.077,north-northwest,6.0,Yes
2022/07/06,21:00,0.152,0.139,0.223,0.216,0.211,0.119,0.077,north-northwest,6.4,Yes
2022/07/06,21:10,0.151,0.140,0.224,0.215,0.215,0.118,0.076,north-northwest,5.5,Yes
2022/07/06,21:20,0.150,0.139,0.225,0.215,0.214,0.119,0.077,north-northwest,5.8,Yes
2022/07/06,21:30,0.151,0.140,0.222,0.216,0.212,0.118,0.077,north-northwest,6.1,Yes
2022/07/06,21:40,0.150,0.140,0.224,0.213,0.214,0.118,0.077,north-northwest,5.1,Yes
2022/07/06,21:50,0.151,0.139,0.223,0.215,0.212,0.119,0.077,north-northwest,4.9,Yes
2022/07/06,22:00,0.152,0.140,0.223,0.215,0.213,0.119,0.077,north,5.2,Yes
2022/07/06,22:10,0.149,0.139,0.224,0.213,0.213,0.117,0.077,north,6.3,Yes
2022/07/06,22:20,0.151,0.138,0.221,0.215,0.211,0.117,0.076,north,5.5,Yes
2022/07/06,22:30,0.149,0.138,0.222,0.212,0.214,0.118,0.076,north,5.8,Yes
2022/07/06,22:40,0.149,0.138,0.221,0.212,0.210,0.117,0.077,north,6.8,Yes
2022/07/06,22:50,0.151,0.140,0.222,0.213,0.211,0.118,0.077,north,7.0,Yes
2022/07/06,23:00,0.150,0.139,0.223,0.212,0.215,0.118,0.078,north,7.7,Yes
2022/07/06,23:10,0.150,0.139,0.223,0.215,0.211,0.118,0.077,north,8.2,Yes
2022/07/06,23:20,0.150,0.139,0.223,0.213,0.213,0.118,0.077,north,7.6,Yes
2022/07/06,23:30,0.150,0.139,0.220,0.213,0.213,0.118,0.077,north,7.2,Yes
2022/07/06,23:40,0.149,0.138,0.221,0.213,0.211,0.117,0.077,north-northwest,7.2,Yes
2022/07/06,23:50,0.150,0.138,0.220,0.212,0.214,0.116,0.077,north-northwest,6.6,Yes
